When you browse on this site, cookies collect data to enhance your experience and personalize the content and advertising you see.
Visit our Privacy Policy to learn more. By continuing to use the site, you agree to this use of cookies and data.
  • Em Portugal
  • Lista de países
  • Para 7 dias
  • Temperatura da água
  • Mapas de satélite
  • Mapa do tempo
  • Widgets de tempo
  • user-avatar
    Iniciar Sessão

    Previsão horária em Newcastle

    Hoje, 24 Julho, Quarta-feira

    Tempo Temperatura Precipitação Vento Pressão Humidade
    00:00 +10°C° 0 mm 5 m/s 762 mmHg 55%
    01:00 +10°C° 0 mm 5 m/s 761 mmHg 55%
    02:00 +10°C° 0 mm 6 m/s 761 mmHg 54%
    03:00 +10°C° 0 mm 6 m/s 761 mmHg 53%
    04:00 +11°C° 0 mm 7 m/s 761 mmHg 55%
    05:00 +11°C° 0 mm 7 m/s 761 mmHg 56%
    06:00 +11°C° 0 mm 7 m/s 762 mmHg 57%
    07:00 +11°C° 0 mm 6 m/s 762 mmHg 58%
    08:00 +13°C° 0 mm 6 m/s 763 mmHg 56%
    09:00 +15°C° 0 mm 6 m/s 763 mmHg 54%
    10:00 +16°C° 0 mm 6 m/s 763 mmHg 48%
    11:00 +19°C° 0 mm 5 m/s 763 mmHg 46%
    12:00 +20°C° 0 mm 4 m/s 763 mmHg 43%
    13:00 +21°C° 0 mm 3 m/s 763 mmHg 41%
    14:00 +20°C° 0 mm 4 m/s 763 mmHg 44%
    15:00 +20°C° 0 mm 4 m/s 763 mmHg 48%
    16:00 +19°C° 0 mm 4 m/s 763 mmHg 52%
    17:00 +17°C° 0 mm 4 m/s 764 mmHg 60%
    18:00 +14°C° 0 mm 3 m/s 765 mmHg 69%
    19:00 +12°C° 0 mm 3 m/s 766 mmHg 77%
    20:00 +12°C° 0 mm 3 m/s 766 mmHg 80%
    21:00 +12°C° 0 mm 3 m/s 767 mmHg 82%
    22:00 +11°C° 0 mm 3 m/s 767 mmHg 84%
    23:00 +11°C° 0 mm 3 m/s 767 mmHg 85%

    Amanhã, 25 Julho, Quinta-feira

    Tempo Temperatura Precipitação Vento Pressão Humidade
    00:00 +10°C° 0 mm 3 m/s 767 mmHg 86%
    01:00 +10°C° 0 mm 3 m/s 767 mmHg 87%
    02:00 +10°C° 0 mm 3 m/s 767 mmHg 86%
    03:00 +9°C° 0 mm 3 m/s 767 mmHg 86%
    04:00 +9°C° 0 mm 2 m/s 767 mmHg 85%
    05:00 +8°C° 0 mm 2 m/s 768 mmHg 87%
    06:00 +8°C° 0 mm 2 m/s 768 mmHg 89%
    07:00 +7°C° 0 mm 2 m/s 768 mmHg 91%
    08:00 +10°C° 0 mm 2 m/s 768 mmHg 81%
    09:00 +14°C° 0 mm 1 m/s 768 mmHg 70%
    10:00 +16°C° 0 mm 1 m/s 768 mmHg 60%
    11:00 +18°C° 0 mm 1 m/s 768 mmHg 56%
    12:00 +20°C° 0 mm 1 m/s 767 mmHg 51%
    13:00 +21°C° 0 mm 1 m/s 767 mmHg 47%
    14:00 +20°C° 0 mm 1 m/s 767 mmHg 51%
    15:00 +19°C° 0 mm 2 m/s 766 mmHg 55%
    16:00 +18°C° 0 mm 2 m/s 766 mmHg 58%
    17:00 +16°C° 0 mm 3 m/s 767 mmHg 68%
    18:00 +13°C° 0 mm 3 m/s 767 mmHg 78%
    19:00 +11°C° 0 mm 3 m/s 767 mmHg 88%
    20:00 +11°C° 0 mm 3 m/s 767 mmHg 89%
    21:00 +11°C° 0 mm 3 m/s 767 mmHg 90%
    22:00 +10°C° 0 mm 3 m/s 767 mmHg 91%
    23:00 +10°C° 0 mm 3 m/s 767 mmHg 92%

    Depois de amanhã, 26 Julho, Sexta-feira

    Tempo Temperatura Precipitação Vento Pressão Humidade
    00:00 +10°C° 0 mm 3 m/s 767 mmHg 93%
    01:00 +9°C° 0 mm 3 m/s 767 mmHg 93%
    02:00 +9°C° 0 mm 2 m/s 766 mmHg 94%
    03:00 +9°C° 0 mm 2 m/s 766 mmHg 95%
    04:00 +8°C° 0 mm 2 m/s 766 mmHg 96%
    05:00 +8°C° 0 mm 2 m/s 766 mmHg 96%
    06:00 +8°C° 0 mm 2 m/s 766 mmHg 95%
    07:00 +8°C° 0 mm 2 m/s 766 mmHg 95%
    08:00 +10°C° 0 mm 3 m/s 766 mmHg 85%
    09:00 +12°C° 0 mm 3 m/s 766 mmHg 76%
    10:00 +14°C° 0 mm 3 m/s 766 mmHg 66%
    11:00 +16°C° 0 mm 3 m/s 765 mmHg 59%
    12:00 +18°C° 0 mm 4 m/s 764 mmHg 52%
    13:00 +19°C° 0 mm 4 m/s 764 mmHg 45%
    14:00 +19°C° 0 mm 4 m/s 764 mmHg 47%
    15:00 +19°C° 0 mm 3 m/s 764 mmHg 48%
    16:00 +18°C° 0 mm 3 m/s 763 mmHg 50%
    17:00 +17°C° 0 mm 4 m/s 764 mmHg 52%
    18:00 +15°C° 0 mm 4 m/s 764 mmHg 54%
    19:00 +14°C° 0 mm 4 m/s 765 mmHg 55%
    20:00 +14°C° 0 mm 4 m/s 765 mmHg 58%
    21:00 +13°C° 0 mm 4 m/s 766 mmHg 61%
    22:00 +12°C° 0 mm 4 m/s 766 mmHg 64%
    23:00 +12°C° 0 mm 4 m/s 766 mmHg 68%

    27 Julho, Sábado

    Tempo Temperatura Precipitação Vento Pressão Humidade
    00:00 +11°C° 0 mm 4 m/s 765 mmHg 72%
    01:00 +10°C° 0 mm 4 m/s 765 mmHg 76%
    02:00 +10°C° 0 mm 4 m/s 765 mmHg 78%
    03:00 +9°C° 0 mm 3 m/s 765 mmHg 81%
    04:00 +9°C° 0 mm 3 m/s 765 mmHg 83%
    05:00 +8°C° 0 mm 3 m/s 765 mmHg 84%
    06:00 +8°C° 0 mm 3 m/s 766 mmHg 85%
    07:00 +8°C° 0 mm 3 m/s 766 mmHg 85%
    08:00 +10°C° 0 mm 3 m/s 766 mmHg 76%
    09:00 +12°C° 0 mm 3 m/s 766 mmHg 67%
    10:00 +16°C° 0 mm 3 m/s 766 mmHg 58%
    11:00 +17°C° 0 mm 2 m/s 765 mmHg 54%
    12:00 +18°C° 0 mm 2 m/s 765 mmHg 49%
    13:00 +20°C° 0 mm 2 m/s 764 mmHg 45%
    14:00 +19°C° 0 mm 2 m/s 764 mmHg 48%
    15:00 +19°C° 0 mm 2 m/s 764 mmHg 52%
    16:00 +18°C° 0 mm 2 m/s 764 mmHg 56%
    17:00 +16°C° 0 mm 1 m/s 764 mmHg 65%
    18:00 +14°C° 0 mm 1 m/s 765 mmHg 74%
    19:00 +12°C° 0 mm 1 m/s 765 mmHg 83%
    20:00 +12°C° 0 mm 1 m/s 766 mmHg 83%
    21:00 +12°C° 0 mm 1 m/s 766 mmHg 84%
    22:00 +12°C° 0 mm 1 m/s 766 mmHg 85%
    23:00 +11°C° 0 mm 1 m/s 766 mmHg 84%

    28 Julho, Domingo

    Tempo Temperatura Precipitação Vento Pressão Humidade
    00:00 +10°C° 0 mm 2 m/s 766 mmHg 84%
    01:00 +10°C° 0 mm 2 m/s 766 mmHg 84%
    02:00 +10°C° 0 mm 2 m/s 766 mmHg 83%
    03:00 +9°C° 0 mm 2 m/s 766 mmHg 82%
    04:00 +9°C° 0 mm 3 m/s 766 mmHg 82%
    05:00 +9°C° 0 mm 3 m/s 766 mmHg 83%
    06:00 +9°C° 0 mm 3 m/s 766 mmHg 83%
    07:00 +9°C° 0 mm 3 m/s 767 mmHg 84%
    08:00 +11°C° 0 mm 3 m/s 767 mmHg 75%
    09:00 +13°C° 0 mm 3 m/s 767 mmHg 67%
    10:00 +16°C° 0 mm 3 m/s 767 mmHg 58%
    11:00 +18°C° 0 mm 2 m/s 766 mmHg 52%
    12:00 +19°C° 0 mm 2 m/s 765 mmHg 45%
    13:00 +21°C° 0 mm 2 m/s 764 mmHg 39%
    14:00 +20°C° 0 mm 2 m/s 764 mmHg 43%
    15:00 +19°C° 0 mm 2 m/s 764 mmHg 47%
    16:00 +18°C° 0 mm 2 m/s 764 mmHg 51%
    17:00 +17°C° 0 mm 2 m/s 765 mmHg 53%
    18:00 +16°C° 0 mm 1 m/s 765 mmHg 55%
    19:00 +16°C° 0 mm 1 m/s 766 mmHg 57%
    20:00 +15°C° 0 mm 1 m/s 766 mmHg 61%
    21:00 +14°C° 0 mm 1 m/s 766 mmHg 65%
    22:00 +12°C° 0 mm 0 m/s 766 mmHg 69%
    23:00 +12°C° 0 mm 1 m/s 766 mmHg 72%

    29 Julho, Segunda-feira

    Tempo Temperatura Precipitação Vento Pressão Humidade
    00:00 +11°C° 0 mm 1 m/s 766 mmHg 75%
    01:00 +10°C° 0 mm 2 m/s 766 mmHg 78%
    02:00 +9°C° 0 mm 2 m/s 766 mmHg 80%
    03:00 +9°C° 0 mm 2 m/s 766 mmHg 81%
    04:00 +9°C° 0 mm 2 m/s 765 mmHg 83%
    05:00 +8°C° 0 mm 2 m/s 766 mmHg 83%
    06:00 +8°C° 0 mm 2 m/s 766 mmHg 84%
    07:00 +8°C° 0 mm 2 m/s 766 mmHg 85%
    08:00 +12°C° 0 mm 2 m/s 766 mmHg 75%
    09:00 +14°C° 0 mm 2 m/s 766 mmHg 65%
    10:00 +17°C° 0 mm 2 m/s 766 mmHg 55%
    11:00 +18°C° 0 mm 2 m/s 765 mmHg 50%
    12:00 +20°C° 0 mm 1 m/s 764 mmHg 46%
    13:00 +22°C° 0 mm 1 m/s 764 mmHg 42%
    14:00 +21°C° 0 mm 1 m/s 764 mmHg 46%
    15:00 +20°C° 0 mm 1 m/s 763 mmHg 49%
    16:00 +19°C° 0 mm 2 m/s 763 mmHg 53%
    17:00 +18°C° 0 mm 2 m/s 763 mmHg 57%
    18:00 +16°C° 0 mm 2 m/s 764 mmHg 60%
    19:00 +15°C° 0 mm 2 m/s 764 mmHg 64%
    20:00 +15°C° 0.1 mm 2 m/s 764 mmHg 63%
    21:00 +15°C° 0.1 mm 2 m/s 764 mmHg 63%
    22:00 +15°C° 0.1 mm 1 m/s 764 mmHg 63%
    23:00 +15°C° 0.1 mm 2 m/s 764 mmHg 69%
    Mostrar mais